Location: Cold Norton
(51.6667°N, 0.6667°E)
Time: 16:47:38
(UTC+00:00)

Cosmos 841 Rocket - Pass Details

Date: 18 November 2025
Orbit: 742 x 768 km, 74.0° (Epoch: 08 December)

Event Time Altitude Azimuth Distance (km) Brightness Sun altitude
Rises 17:25:02 0° 337° (NNW) 3,248 6.8 -12.5°
Reaches altitude 10° 17:27:33 10° 345° (NNW) 2,320 6.0 -12.8°
Maximum altitude 17:32:33 42° 56° (NE) 1,093 3.9 -13.6°
Drops below altitude 10° 17:37:31 10° 127° (SE) 2,306 5.6 -14.3°
Enters shadow 17:38:54 - 132° (SE) 2,814 6.1 -14.5°
